Location: Newark
(44.9333°N, 0.5667°E)
Time: 15:25:00
(UTC+00:00)

Oscar 11 - Pass Details

Date: 27 February 2020
Orbit: 612 x 626 km, 97.6° (Epoch: 31 March)

Event Time Altitude Azimuth Distance (km) Brightness Sun altitude
Rises 18:50:53 0° 196° (SSW) 2,898 10.7 -13.0°
Reaches altitude 10° 18:53:23 10° 210° (SSW) 1,996 10.0 -13.5°
Maximum altitude 18:57:00 25° 266° (W) 1,260 9.6 -14.1°
Drops below altitude 10° 19:00:38 10° 322° (NW) 2,008 10.2 -14.7°
Sets 19:03:10 0° 336° (NNW) 2,918 10.9 -15.2°
